User: anonymous   Login
Location: Carrer del Canonge
(41.4901°N, 2.2931°E)
Time: 20:17:44
(UTC+00:00)
Language:

SPOT 3 Rocket - Orbit

View from above orbital plane
View from above orbital plane
View from above satellite
View from above satellite

Ground track
Ground track

The orbit data is extracted from the following two-line orbital elements,

1 22830U 93061H   21216.19180114 -.00000010  00000-0  13270-4 0  9990
2 22830  98.7104 273.8986 0010842 185.6072 174.4991 14.31487134453871
Epoch (UTC): 04 August 2021 04:36:11
Eccentricity: 0.0010842
inclination: 98.7104°
perigee height: 779 km
apogee height: 794 km
right ascension of ascending node: 273.8986°
argument of perigee: 185.6072°
revolutions per day: 14.31487134
mean anomaly at epoch: 174.4991°
orbit number at epoch: 45387

The dashed part of the orbit path shows where the satellite is in the earth's shadow,  

DLR